Regional Weather Roundup
Issued by NWS

Home | Current Version | Previous Version | Text Only | Print | Product List | Glossary Off
Versions: 1 2 3 4 5 6 7 8 9 10 11 12 13 14 15 16 17 18 19 20 21 22 23 24 25 26 27 28 29 30 31 32 33 34 35 36 37 38 39 40 41 42 43 44 45 46 47 48 49 50

000
ASUS43 KDTX 171201
RWRMI
MICHIGAN HOURLY REGIONAL WEATHER ROUNDUP
NATIONAL WEATHER SERVICE DETROIT/PONTIAC MI
800 AM EDT THU AUG 17 2017

NOTE: "FAIR" INDICATES FEW OR NO CLOUDS BELOW 12,000 FEET WITH NO
SIGNIFICANT WEATHER AND/OR OBSTRUCTION TO VISIBILITY.

MIZ047>049-052>055-059>063-066>070-074>076-081>083-171300-
SOUTHEAST LOWER MICHIGAN

CITY           SKY/WX    TMP DP  RH WIND       PRES   REMARKS
ADRIAN         CLOUDY    68  67  96 CALM      29.90S FOG
6HR MIN TEMP:  67; 6HR MAX TEMP:  72; 6HR PCP:  0.06;

ALMA           PTSUNNY   67  65  94 SE7       29.85S
ANN ARBOR      CLOUDY    70  70 100 E5        29.89S FOG
BAD AXE        CLOUDY    69  60  73 SE6       29.90F
CARO           RAIN      65  60  83 SE6       29.89R
DETROIT CITY   HVY RAIN  70  67  90 S6        29.93R FOG
6HR MIN TEMP:  70; 6HR MAX TEMP:  73; 6HR PCP:  0.06;

DETROIT        LGT RAIN  72  71  97 SE7       29.91F FOG
6HR MIN TEMP:  71; 6HR MAX TEMP:  74; 6HR PCP:  0.80;

FLINT          LGT RAIN  67  65  93 SE10      29.88F
6HR MIN TEMP:  67; 6HR MAX TEMP:  73; 6HR PCP:  0.26;

GROSSE ILE     CLOUDY    72  68  88 CALM      29.90F
6HR MIN TEMP:  72; 6HR MAX TEMP:  75; 6HR PCP:  0.02;

HILLSDALE      CLOUDY    70  68  94 S7        29.89R FOG
HOWELL         CLOUDY    68  66  94 SE7       29.88S
6HR MIN TEMP:  67; 6HR MAX TEMP:  72;


CITY           SKY/WX    TMP DP  RH WIND       PRES   REMARKS
JACKSON        PTSUNNY   72  68  88 SE12      29.87F
LAMBERTVILLE   CLOUDY    70  69  96 SE3       29.89S FOG
6HR MIN TEMP:  69; 6HR MAX TEMP:  73;

LANSING        PTSUNNY   70  67  90 SE8       29.86S
6HR MIN TEMP:  69; 6HR MAX TEMP:  72; 6HR PCP:  0.09;

LAPEER         DRIZZLE   67  62  84 S3        29.91S
6HR MIN TEMP:  67; 6HR MAX TEMP:  68;

MASON          CLOUDY    70  68  94 SE7       29.87S FOG
MONROE         CLOUDY    72  71  96 CALM      29.89S FOG
6HR MIN TEMP:  71; 6HR MAX TEMP:  75; 6HR PCP:  0.30;

MT. CLEMENS    LGT RAIN  73  68  83 SE10      29.90S
PONTIAC        LGT RAIN  69  66  90 SE8       29.90S
6HR MIN TEMP:  69; 6HR MAX TEMP:  72; 6HR PCP:  0.01;

PORT HOPE        N/A     71  63  75 SE15G23   29.88F
6HR MIN TEMP:  68; 6HR MAX TEMP:  71;

PORT HURON     PTSUNNY   72  63  73 SE7       29.92S
TRI CITIES     LGT RAIN  67  66  97 SE10      29.87S FOG
6HR MIN TEMP:  67; 6HR MAX TEMP:  73; 6HR PCP:  0.11;

MIDLAND        CLOUDY    67  64  90 SE14      29.84F
6HR MIN TEMP:  67; 6HR MAX TEMP:  71;

TROY           HVY RAIN  70  67  89 SE3       29.93R
SAGINAW HB     RAIN      64  64 100 SE7       29.86F
$$
MIZ043>046-050>051-056>058-064>065-071>073-077>080-171300-
SOUTHWEST LOWER MICHIGAN

CITY           SKY/WX    TMP DP  RH WIND       PRES   REMARKS
BATTLE CREEK   PTSUNNY   72  70  93 S10       29.85S
6HR MIN TEMP:  69; 6HR MAX TEMP:  75; 6HR PCP:  0.12;

BENTON HARBOR  CLOUDY    75  69  81 S8        29.81S
6HR MIN TEMP:  74; 6HR MAX TEMP:  76; 6HR PCP:  0.02;

BIG RAPIDS     CLOUDY    66  63  92 S7        29.81S
6HR MIN TEMP:  64; 6HR MAX TEMP:  70; 6HR PCP:  0.29;

COLDWATER      CLOUDY    72  72 100 S5        29.86S
6HR MIN TEMP:  69; 6HR MAX TEMP:  72;

FREMONT        CLOUDY    69  69 100 S6        29.79R
HOLLAND        PTSUNNY   73  71  93 S8        29.80S
6HR MIN TEMP:  72; 6HR MAX TEMP:  76; 6HR PCP:  0.64;

GRAND RAPIDS   CLOUDY    70  69  97 S7        29.82S
6HR MIN TEMP:  68; 6HR MAX TEMP:  74; 6HR PCP:  0.47;

IONIA          FAIR      68  67  96 S3        29.83S
6HR MIN TEMP:  67; 6HR MAX TEMP:  72; 6HR PCP:  0.11;

KALAMAZOO      PTSUNNY   73  70  90 S8        29.83F FOG
6HR MIN TEMP:  71; 6HR MAX TEMP:  73; 6HR PCP:  0.06;

LUDINGTON      CLOUDY    70  68  93 S8        29.76R
6HR MIN TEMP:  68; 6HR MAX TEMP:  71; 6HR PCP:  0.14;

MARSHALL       CLOUDY    71  71  98 S7        29.85F
6HR MIN TEMP:  68; 6HR MAX TEMP:  72; 6HR PCP:  0.08;

MOUNT PLEASANT CLOUDY    68  66  92 SE5       29.83S
6HR MIN TEMP:  66; 6HR MAX TEMP:  71; 6HR PCP:  0.11;

MUSKEGON       CLOUDY    73  71  93 S9        29.79R
6HR MIN TEMP:  71; 6HR MAX TEMP:  73; 6HR PCP:  0.18;

SOUTH HAVEN    CLOUDY    75  72  90 S8        29.80S
$$
MIZ016>042-171300-
NORTHERN LOWER MICHIGAN

CITY           SKY/WX    TMP DP  RH WIND       PRES   REMARKS
ALPENA         LGT RAIN  68  67  96 SE12      29.89F
6HR MIN TEMP:  66; 6HR MAX TEMP:  69; 6HR PCP:  0.01;

BEAVER ISLAND  RAIN      65  64  96 E12G17    29.78R
6HR MIN TEMP:  65; 6HR MAX TEMP:  69;

BELLAIRE       CLOUDY    66  63  88 S5        29.79F
6HR MIN TEMP:  64; 6HR MAX TEMP:  71;

CADILLAC       CLOUDY    65  62  89 SE9       29.81F
CHARLEVOIX     LGT RAIN  65  65 100 E10       29.81F
6HR MIN TEMP:  64; 6HR MAX TEMP:  71;

FRANKFORT      CLOUDY    69  69  97 SE13      29.75R
GAYLORD          N/A     62  60  93 SE15      29.84F
6HR MIN TEMP:  62; 6HR MAX TEMP:  65; 6HR PCP:  0.16;

GRAYLING       LGT RAIN  63  61  93 SE10      29.85F
6HR MIN TEMP:  63; 6HR MAX TEMP:  66;

HARBOR SPRINGS HVY RAIN  64  62  95 E7        29.82S
HOUGHTON LAKE  CLOUDY    63  61  93 E7        29.85F
6HR MIN TEMP:  63; 6HR MAX TEMP:  67; 6HR PCP:  0.68;

MANISTEE       CLOUDY    68  66  93 SE7       29.75R
OSCODA         LGT RAIN  70  63  78 SE7       29.86F
6HR MIN TEMP:  69; 6HR MAX TEMP:  70;

PELLSTON       RAIN      64  63  96 SE12      29.82F FOG
6HR MIN TEMP:  64; 6HR MAX TEMP:  66; 6HR PCP:  0.15;

ROGERS CITY    LGT RAIN  65  64  93 SE6       29.88F
TRAVERSE CITY  CLOUDY    66  63  90 SE8G18    29.75F
6HR MIN TEMP:  66; 6HR MAX TEMP:  72; 6HR PCP:  0.31;

$$
MIZ007>008-015-171300-
EASTERN UPPER MICHIGAN

CITY           SKY/WX    TMP DP  RH WIND       PRES   REMARKS
KINROSS        LGT RAIN  62  59  90 E15       29.87F
6HR MIN TEMP:  62; 6HR MAX TEMP:  64;

MACKINAC ISLAN LGT RAIN  65  65 100 E14G21    29.83F
6HR MIN TEMP:  64; 6HR MAX TEMP:  65; 6HR PCP:  0.11;

NEWBERRY       CLOUDY    62  61  97 E13G22    29.80F
6HR MIN TEMP:  62; 6HR MAX TEMP:  64; 6HR PCP:  0.33;

S. S. MARIE    LGT RAIN  65  57  75 E10G16    29.87F
6HR MIN TEMP:  63; 6HR MAX TEMP:  65; 6HR PCP: TRACE;

MUNISING         N/A     64  64 100 SE9G21    29.75R
6HR MIN TEMP:  64; 6HR MAX TEMP:  67; 6HR PCP:  0.60;

$$
MIZ004>006-011>014-085-171300-
CENTRAL UPPER MICHIGAN

CITY           SKY/WX    TMP DP  RH WIND       PRES   REMARKS
MANISTIQUE     RAIN      64  58  81 E14G21    29.75R
6HR MIN TEMP:  64; 6HR MAX TEMP:  67; 6HR PCP:  0.23;

ESCANABA       CLOUDY    68  68 100 SE12G21   29.69F
6HR MIN TEMP:  67; 6HR MAX TEMP:  70; 6HR PCP:  0.93;

MENOMINEE      CLOUDY    71  70  96 S8        29.67F FOG
6HR MIN TEMP:  69; 6HR MAX TEMP:  71; 6HR PCP:  0.44;

SAWYER-GWINN   LGT RAIN  63  63 100 SE10G16   29.73F
$$
MIZ001>003-009>011-084-171300-
WESTERN UPPER MICHIGAN

CITY           SKY/WX    TMP DP  RH WIND       PRES   REMARKS
IRON MOUNTAIN  CLOUDY    67  64  90 E6        29.67S FOG
6HR MIN TEMP:  64; 6HR MAX TEMP:  67; 6HR PCP:  0.14;

HOUGHTON       RAIN      62  61  96 VRB3      29.72R FOG
6HR MIN TEMP:  60; 6HR MAX TEMP:  62; 6HR PCP:  0.13;

COPPER HARBOR    N/A     61  59  93 VRB6      29.72F
6HR MIN TEMP:  60; 6HR MAX TEMP:  65; 6HR PCP:  0.10;

IRONWOOD       CLOUDY    62  61  96 E7        29.64S
6HR MIN TEMP:  60; 6HR MAX TEMP:  65; 6HR PCP:  0.19;

$$

ABBREVIATIONS USED IN REMARKS
   TC - TEMPERATURE IN CELSIUS
  WCI - WIND CHILL INDEX
   HX - HEAT INDEX
  VSB - VISIBILITY




USA.gov is the U.S. government's official web portal to all federal, state and local government web resources and services.